Phoenix, AZ

11:27 AM MST on November 20, 2017 (GMT -0700)
Phoenix Sky Harbor International

Weather History for KPHX - January, 2012

Change the Weather History Date:

Thursday, January 5, 2012

  Actual Average Record
Temperature  
Mean Temperature 64 °F 55 °F  
Max Temperature 77 °F 66 °F 80 °F (1927)
Min Temperature 50 °F 45 °F 23 °F (1950)
Degree Days  
Heating Degree Days 1 10  
Month to date heating degree days 3 50  
Since 1 July heating degree days 431 451  
Cooling Degree Days 0 0  
Month to date cooling degree days 3 0  
Year to date cooling degree days 3 0  
Growing Degree Days 14 (Base 50)    
Moisture  
Dew Point 27 °F    
Average Humidity 28    
Maximum Humidity 48    
Minimum Humidity 13    
Precipitation  
Precipitation 0.00 in 0.03 in 0.31 in (1984)
Month to date precipitation 0.00 0.15  
Year to date precipitation 0.00 0.15  
Snow  
Snow 0.00 in - - ()
Month to date snowfall 0.0  
Year to date snowfall 0.0  
Since 1 July snowfall 0.0  
Snow Depth 0.00 in    
Sea Level Pressure  
Sea Level Pressure 30.13 in    
Wind  
Wind Speed 4 mph (SE)    
Max Wind Speed 14 mph    
Max Gust Speed 17 mph    
Visibility 10 miles    
Events      
T = Trace of Precipitation, MM = Missing Value Source: NWS Daily Summary

Daily Weather History Graph

Daily Weather History Graph

Search for Another Location

Airport or City:

Trip Planner

Search our weather history database for the weather conditions in past years. The results will help you decide how hot, cold, wet, or windy it might be!

Date:

Astronomy

Jan. 05, 2012 Rise Set
Actual Time 7:32 AM MST 5:34 PM MST
Civil Twilight 7:05 AM MST 6:01 PM MST
Nautical Twilight 6:34 AM MST 6:32 PM MST
Astronomical Twilight 6:04 AM MST 7:02 PM MST
Moon 2:41 PM MST (1/5) 4:21 AM MST (1/5)
Length of Visible Light 10h 56m
Length of Day
10h 01m
Waxing Gibbous, 88% of the Moon is Illuminated
Jan 5
Waxing Gibbous
Jan 9
Full
Jan 16
Last Quarter
Jan 23
New
Jan 30
First Quarter

Hourly Weather History & Observations

Time (MST) Temp. Dew Point Humidity Pressure Visibility Wind Dir Wind Speed Gust Speed Precip Events Conditions
12:51 AM 54.0 °F 30.9 °F 41% 30.24 in 10.0 mi SW 4.6 mph - N/A   Partly Cloudy
1:51 AM 54.0 °F 30.9 °F 41% 30.24 in 10.0 mi SW 3.5 mph - N/A   Partly Cloudy
2:51 AM 55.0 °F 28.9 °F 37% 30.24 in 10.0 mi Calm Calm - N/A   Partly Cloudy
3:51 AM 50.0 °F 30.9 °F 48% 30.24 in 10.0 mi SE 4.6 mph - N/A   Partly Cloudy
4:51 AM 54.0 °F 25.0 °F 33% 30.23 in 10.0 mi ESE 4.6 mph - N/A   Partly Cloudy
5:51 AM 52.0 °F 25.0 °F 35% 30.23 in 10.0 mi East 5.8 mph - N/A   Partly Cloudy
6:51 AM 53.6 °F 21.2 °F 28% 30.25 in 10.0 mi East 5.8 mph - N/A   Partly Cloudy
7:51 AM 55.9 °F 21.9 °F 27% 30.22 in 10.0 mi East 8.1 mph - N/A   Partly Cloudy
8:51 AM 60.1 °F 23.0 °F 24% 30.22 in 10.0 mi ESE 12.7 mph - N/A   Partly Cloudy
9:51 AM 62.1 °F 24.1 °F 23% 30.23 in 10.0 mi East 10.4 mph - N/A   Partly Cloudy
10:51 AM 66.0 °F 27.0 °F 23% 30.22 in 10.0 mi ESE 6.9 mph - N/A   Partly Cloudy
11:51 AM 69.1 °F 26.1 °F 20% 30.19 in 10.0 mi ENE 4.6 mph - N/A   Partly Cloudy
12:51 PM 71.1 °F 26.1 °F 19% 30.14 in 10.0 mi Calm Calm - N/A   Partly Cloudy
1:51 PM 73.9 °F 26.1 °F 17% 30.09 in 10.0 mi Calm Calm - N/A   Partly Cloudy
2:51 PM 75.9 °F 24.1 °F 15% 30.06 in 10.0 mi Variable 3.5 mph - N/A   Partly Cloudy
3:51 PM 77.0 °F 23.0 °F 13% 30.04 in 10.0 mi Calm Calm - N/A   Partly Cloudy
4:51 PM 73.9 °F 27.0 °F 18% 30.02 in 10.0 mi SW 3.5 mph - N/A   Scattered Clouds
5:51 PM 69.1 °F 28.9 °F 22% 30.01 in 10.0 mi WSW 3.5 mph - N/A   Scattered Clouds
6:51 PM 64.9 °F 30.0 °F 27% 30.01 in 10.0 mi WSW 3.5 mph - N/A   Partly Cloudy
7:51 PM 66.9 °F 27.0 °F 22% 30.00 in 10.0 mi NW 4.6 mph - N/A   Partly Cloudy
8:51 PM 61.0 °F 30.0 °F 31% 30.00 in 10.0 mi Calm Calm - N/A   Partly Cloudy
9:51 PM 57.0 °F 33.1 °F 40% 30.01 in 10.0 mi Calm Calm - N/A   Partly Cloudy
10:51 PM 57.0 °F 32.0 °F 39% 30.00 in 10.0 mi Calm Calm - N/A   Clear
11:51 PM 54.0 °F 33.1 °F 45% 29.99 in 10.0 mi East 4.6 mph - N/A   Clear